Flag for Canada Weather past 2 weeks in Wood Buffalo, Alberta, Canada

Now
34 °F

Chilly.


Feels Like: 34 °F
Forecast: 26 / 51 °F
Wind: 2 mph from East

Location: Fort McMurray CS

Current Time: Mar 29, 2015 at 10:30:50 AM

Latest Report: Mar 29, 2015 at 9:00 AM


Visibility: N/A

Pressure: 29.83 "Hg

Humidity: 95%

Dew point: 33 °F

Location of Wood BuffaloLocation

Historic Weather in Wood Buffalo — Graph

°F

Wood Buffalo temperature yesterday

Maximum temperature yesterday: 52 °F (at 5:00 PM)
Minimum temperature yesterday: 34 °F (at 6:00 AM)
Average temperature yesterday: 42 °F

Past Weeks' High & Low Weather Summary

 TemperatureHumidityPressure
High57 °F (Mar 14, 5:00 PM)100% (Mar 24, 5:00 AM)30.51 "Hg (Mar 24, 5:00 AM)
Low0 °F (Mar 20, 6:00 AM)21% (Mar 20, 3:00 PM)29.07 "Hg (Mar 14, 8:00 PM)
Average26 °F69%30.05 "Hg
* Reported Mar 14 9:00 AM — Mar 29 9:00 AM, Wood Buffalo, Weather by CustomWeather, © 2015

Note: Actual official high and low records may vary slightly from our data, if they occured in-between our weather recording intervals... More about our weather records

Advertising

Wood Buffalo weather history for previous 24 hours

 ConditionsComfort  
Time TempWeatherWind HumidityBarometerVisibility
9:00 AM
Sun, Mar 29
34 °FChilly.2 mph95%29.83 "HgN/A
8:00 AM31 °FChilly.No wind96%29.85 "HgN/A
7:00 AM29 °FChilly.6 mph97%29.85 "HgN/A
6:00 AM29 °FChilly.No wind97%29.87 "HgN/A
5:00 AM29 °FChilly.2 mph96%29.86 "HgN/A
4:00 AM30 °FChilly.2 mph95%29.85 "HgN/A
3:00 AM30 °FChilly.3 mph92%29.85 "HgN/A
2:00 AM31 °FChilly.2 mph89%29.85 "HgN/A
1:00 AM31 °FChilly.3 mph90%29.84 "HgN/A
12:00 AM34 °FChilly.6 mph81%29.83 "HgN/A
11:00 PM
Sat, Mar 28
36 °FChilly.3 mph67%29.83 "HgN/A
10:00 PM37 °FChilly.6 mph52%29.81 "HgN/A
9:00 PM41 °FQuite cool.6 mph48%29.79 "HgN/A
8:00 PM45 °FQuite cool.12 mph42%29.76 "HgN/A
7:00 PM48 °FCool.15 mph36%29.74 "HgN/A
6:00 PM50 °FCool.17 mph32%29.72 "HgN/A
5:00 PM52 °FCool.14 mph31%29.70 "HgN/A
4:00 PM51 °FCool.13 mph29%29.69 "HgN/A
3:00 PM51 °FCool.14 mph30%29.67 "HgN/A
2:00 PM51 °FCool.12 mph33%29.65 "HgN/A
1:00 PM49 °FCool.9 mph45%29.64 "HgN/A
12:00 PM46 °FCool.6 mph75%29.63 "HgN/A
11:00 AM43 °FQuite cool.6 mph82%29.61 "HgN/A
10:00 AM40 °FChilly.5 mph89%29.60 "HgN/A
Weather by CustomWeather, © 2015

See weather overviewHow to use our weather pages